Вернуться в каталог

STARLINK-11244

АктивенСвязьVLEO
NORAD 60926·PAYLOAD·🇺🇸 United States

Запущен Aug 31, 2024 с Vandenberg Space Force Base

Loading…

Ближайшие Пролёты (ближайшие 24 часа)

TLE

СвежийSource: CelesTrak SupGP

Эпоха: Sep 14, 2026, 22:23 UTC

1 60926C 24155C   26257.93312500 -.00265250  00000+0 -21846-2 0  2576
2 60926  53.1565 128.4294 0000887  94.4062 285.7173 15.69846405    10

Отслеживайте STARLINK-11244 в реальном времени с AllMySat

Download on the App Store